Regional Weather Roundup
Issued by NWS Sioux Falls, SD

Home | Current Version | Previous Version | Text Only | Print | Product List | Glossary On
Versions: 1 2 3 4 5 6 7 8 9 10 11 12 13 14 15 16 17 18 19 20 21 22 23 24 25 26 27 28 29 30 31 32 33 34 35 36 37 38 39 40 41 42 43 44 45 46 47 48 49 50
000
ASUS43 KFSD 161210
RWRFSD

WEATHER ROUNDUP FOR SE SOUTH DAKOTA/SW MINNESOTA/NW IOWA
NATIONAL WEATHER SERVICE SIOUX FALLS SD
600 AM CST TUE JAN 16 2018

NOTE: "FAIR" INDICATES FEW OR NO CLOUDS BELOW 12,000 FEET WITH NO
SIGNIFICANT WEATHER AND OR OBSTRUCTIONS TO VISIBILITY.


SDZ038>040-050-052>070-161300-
SOUTHEAST SOUTH DAKOTA

CITY           SKY/WX    TMP DP  RH WIND       PRES   REMARKS
BROOKINGS      CLOUDY    -9 -13  83 NW10      30.70R WCI -27
CHAMBERLAIN    CLEAR     -8 -13  76 W5        30.78S WCI -19
6HR MIN TEMP:  -8; 6HR MAX TEMP:  -4;

HURON          CLOUDY   -10 -16  74 NW10      30.80S WCI -29
6HR MIN TEMP: -11; 6HR MAX TEMP:  -6;

MADISON        CLOUDY    -8  -9  92 N13       30.69S WCI -28
MITCHELL       CLOUDY    -7 -14  71 NW10      30.80S WCI -25
6HR MIN TEMP:  -7; 6HR MAX TEMP:  -3;

SIOUX FALLS    CLOUDY    -6 -10  83 NW12      30.72R WCI -25
6HR MIN TEMP:  -6; 6HR MAX TEMP:  -3;

WINNER         FAIR      -7 -14  71 W7        30.73F WCI -21
YANKTON        CLOUDY    -5 -11  75 NW16      30.78S WCI -27
$$

MNZ071-072-080-081-089-090-097-098-161300-
SOUTHWEST MINNESOTA

CITY           SKY/WX    TMP DP  RH WIND       PRES   REMARKS
FAIRMONT       LGT SNOW  -6 -11  79 NW18      30.67R WCI -29
JACKSON        LGT SNOW  -6 -13  71 NW15G29   30.64S WCI -27
LUVERNE        CLOUDY    -4  -9  77 N9        30.71R WCI -20
MARSHALL       LGT SNOW  -7 -12  79 NW17      30.73S WCI -30
6HR MIN TEMP: -10; 6HR MAX TEMP:  -7; 6HR PCP: TRACE;

MONTEVIDEO     CLOUDY    -8 -11  84 N12       30.75S WCI -27
PIPESTONE      CLOUDY    -8 -11  84 N12G18    30.65S WCI -27
REDWOOD FALLS  CLOUDY    -9 -13  83 NW15G21   30.73R WCI -31
WINDOM         LGT SNOW  -8 -20  54 NW16      30.66S WCI -30
WORTHINGTON    FLURRIES  -9 -13  83 NW20      30.65F WCI -34
$$

IAZ001>003-012>014-020>022-031-032-NEZ013-014-SDZ071-161300-
NORTHWEST IOWA

CITY           SKY/WX    TMP DP  RH WIND       PRES   REMARKS
CHEROKEE       CLOUDY    -6 -11  79 NW8       30.71R WCI -21
DENISON        FLURRIES  -4  -9  77 N16       30.70S WCI -25
ESTHERVILLE    LGT SNOW  -7 -11  83 NW17      30.65R FOG     WCI -30
LE MARS        CLOUDY    -2  -8  78 NW9       30.73R WCI -18
ORANGE CITY    MOCLDY    -2  -8  78 N10G16    30.69R WCI -19
SHELDON        CLOUDY    -6 -11  77 NW17      30.67S WCI -28
SIOUX CITY     CLOUDY    -2  -8  76 NW23      30.74R WCI -26
6HR MIN TEMP:  -3; 6HR MAX TEMP:  -2;

SPENCER        LGT SNOW  -6 -12  75 NW15      30.67R WCI -27
6HR MIN TEMP:  -9; 6HR MAX TEMP:  -5; 6HR PCP: TRACE;

STORM LAKE     PTCLDY    -8 -13  77 NW15      30.64R WCI -29
$$

ABBREVIATIONS USED IN REMARKS
   TC - TEMPERATURE IN CELSIUS
  WCI - WIND CHILL INDEX
   HX - HEAT INDEX
  VSB - VISIBILITY





USA.gov is the U.S. government's official web portal to all federal, state and local government web resources and services.